[[{"header":{"parameterUnit":"m.s-1","parameterCategory":1,"la1":30.2991,"la2":30.254,"lo1":-89.0895,"lo2":-89.0444,"dy":0.0017,"dx":0.0017,"nx":28,"ny":28,"refTime":"2024-04-19T21:00:00:Z","depth":0,"parameterNumber":2,"parameterNumberName":"U-component_of_WINDS"},"data":[0,0,0,0,0,0,0,0,0,0,0,0,0,0,0,0,0,0,0,0,0,0,0,0,0,0,0,0,0,0,0,0,0,0,0,0,0,0,0,0,0,0,0,0,0,0,0,0,0,0,0,0,0,0,0,0,0,0,-0.266,-0.266,0,-0.2612,-0.2611,-0.2611,-0.261,-0.261,-0.2611,-0.2612,-0.2559,-0.2557,-0.2555,0,0,0,0,0,0,0,0,0,0,0,0,0,-0.2749,-0.2747,-0.266,-0.266,-0.2659,-0.2612,-0.2611,-0.2611,-0.261,-0.261,-0.2611,-0.2612,-0.256,-0.2557,-0.2555,0,0,0,0,0,0,0,0,0,0,0,0,0,-0.2706,-0.2746,-0.266,-0.2653,-0.2652,-0.2612,-0.2611,-0.261,-0.261,-0.261,-0.2611,-0.2612,-0.2561,-0.2558,-0.2555,-0.2518,0,0,-0.2546,-0.2545,0,0,0,0,0,0,0,0,-0.2709,-0.2703,-0.2655,-0.2653,-0.2652,-0.2618,-0.2623,-0.2579,-0.2609,-0.2625,-0.2612,-0.2613,-0.2578,-0.2573,-0.2562,-0.2516,-0.2514,-0.2546,-0.2544,-0.2542,-0.2542,0,0,0,0,0,0,0,-0.2711,-0.2705,-0.2641,-0.2654,-0.2652,-0.2651,-0.2646,-0.2615,-0.2597,-0.2624,-0.2624,-0.2618,-0.2577,-0.2565,-0.2561,-0.2513,-0.2546,-0.2543,-0.2541,-0.254,-0.2434,-0.2433,0,0,0,0,0,0,-0.2716,-0.2707,-0.2642,-0.2639,-0.2683,-0.2649,-0.2643,-0.2628,-0.2597,-0.2594,-0.2618,-0.2619,-0.257,-0.2564,-0.2559,-0.2514,-0.2543,-0.254,-0.2538,-0.2435,-0.2433,-0.2432,0,0,0,0,0,0,-0.2718,-0.2711,-0.2644,-0.2673,-0.2665,-0.2646,-0.2629,-0.2626,-0.2614,-0.2593,-0.2589,-0.2609,-0.257,-0.2563,-0.2529,-0.2513,-0.2538,-0.2536,-0.2436,-0.2434,-0.2433,-0.2425,0,0,0,0,0,0,-0.2721,-0.2711,-0.2698,-0.2673,-0.2663,-0.2616,-0.2628,-0.2625,-0.261,-0.261,-0.2583,-0.258,-0.257,-0.2533,-0.2526,-0.2509,-0.2533,-0.2437,-0.2435,-0.2433,-0.2426,-0.2423,-0.242,0,0,0,0,0,-0.2724,-0.2697,-0.2697,-0.2689,-0.2646,-0.2615,-0.2609,-0.26,-0.2608,-0.2594,-0.258,-0.2581,-0.2516,-0.253,-0.2521,-0.2503,-0.2438,-0.2436,-0.2433,-0.2428,-0.2424,-0.242,0,0,0,0,0,0,-0.2719,-0.2693,-0.2694,-0.2658,-0.2639,-0.2615,-0.2597,-0.2596,-0.2573,-0.2574,-0.2563,-0.2557,-0.2522,-0.2509,-0.2525,-0.2466,-0.2478,-0.2474,-0.2476,-0.2472,-0.2469,-0.2473,-0.2531,0,0,0,0,0,-0.2714,-0.2691,-0.267,-0.264,-0.2631,-0.2615,-0.2601,-0.2596,-0.2575,-0.2566,-0.255,-0.2529,-0.2503,-0.2487,-0.2463,-0.2424,-0.2418,-0.2408,-0.2405,-0.2402,-0.2399,-0.2377,-0.2372,-0.2424,-0.2424,-0.2425,0,0,-0.2703,-0.2686,-0.2672,-0.2639,-0.2623,-0.2599,-0.2608,-0.2582,-0.2564,-0.2562,-0.2529,-0.2516,-0.2491,-0.2455,-0.2438,-0.2443,-0.2383,-0.2399,-0.2398,-0.2395,-0.2374,-0.2369,-0.2365,-0.2423,-0.2423,-0.2423,0,0,-0.2671,-0.2656,-0.263,-0.2614,-0.2591,-0.2581,-0.2575,-0.2551,-0.2542,-0.2509,-0.2507,-0.2484,-0.2441,-0.2424,-0.2409,-0.2371,-0.237,-0.2363,-0.2347,-0.2326,-0.2322,-0.2318,-0.2304,-0.2299,-0.2359,-0.2359,-0.2359,0,-0.266,-0.2624,-0.2616,-0.259,-0.2575,-0.2574,-0.2546,-0.2531,-0.2501,-0.249,-0.2496,-0.2442,-0.2426,-0.2385,-0.2376,-0.2364,-0.2356,-0.2366,-0.2323,-0.2319,-0.2316,-0.2302,-0.2297,-0.2359,-0.2359,-0.2359,-0.2359,0,-0.2612,-0.2587,-0.2569,-0.254,-0.2523,-0.2497,-0.2484,-0.2467,-0.2464,-0.2453,-0.2418,-0.2398,-0.237,-0.236,-0.2355,-0.2318,-0.2322,-0.2326,-0.2337,-0.231,-0.2297,-0.2292,-0.2358,-0.2358,-0.2358,-0.2358,0,0,-0.2575,-0.2543,-0.2536,-0.2523,-0.2497,-0.2478,-0.2451,-0.2424,-0.241,-0.2389,-0.2366,-0.2329,-0.2333,-0.2317,-0.231,-0.2292,-0.2262,-0.2298,-0.2297,-0.2292,-0.2219,-0.2217,-0.2211,-0.2261,-0.226,-0.226,-0.2221,0,-0.254,-0.2494,-0.2485,-0.2444,-0.2421,-0.2419,-0.2396,-0.2377,-0.2366,-0.2343,-0.2331,-0.2305,-0.2312,-0.2302,-0.2284,-0.227,-0.2247,-0.2272,-0.2239,-0.2238,-0.2245,-0.2204,-0.2201,-0.2166,-0.2216,-0.2215,-0.2215,0,-0.2493,-0.2472,-0.2429,-0.2406,-0.2396,-0.2375,-0.235,-0.2329,-0.2307,-0.23,-0.2282,-0.2278,-0.2249,-0.2262,-0.2221,-0.2239,-0.2224,-0.2215,-0.2213,-0.221,-0.2225,-0.2199,-0.2154,-0.2149,-0.2207,-0.2207,-0.2208,0,-0.247,-0.2431,-0.24,-0.2389,-0.2362,-0.2347,-0.2335,-0.2314,-0.2298,-0.2276,-0.2265,-0.2239,-0.2225,-0.2205,-0.2193,-0.2203,-0.2153,-0.2165,-0.2146,-0.2146,-0.2136,-0.2136,-0.2088,-0.2127,-0.2127,-0.2127,-0.2127,0,-0.2432,-0.2406,-0.239,-0.2371,-0.2341,-0.2331,-0.2302,-0.2289,-0.2271,-0.2249,-0.2245,-0.2224,-0.221,-0.2187,-0.2177,-0.2145,-0.2139,-0.2132,-0.213,-0.2132,-0.2133,-0.2123,-0.2125,-0.2125,-0.2126,-0.2126,-0.2126,0,-0.2402,-0.239,-0.2356,-0.2333,-0.2327,-0.2306,-0.2286,-0.2267,-0.2256,-0.2228,-0.2221,-0.2203,-0.2176,-0.2162,-0.2128,-0.2121,-0.2085,-0.2084,-0.2093,-0.2092,-0.2074,-0.2076,-0.2017,-0.2008,-0.2053,-0.2052,-0.2052,0,-0.2378,-0.2358,-0.2333,-0.2318,-0.2306,-0.2283,-0.2267,-0.2256,-0.224,-0.2214,-0.2198,-0.217,-0.2148,-0.2104,-0.2087,-0.2061,-0.2059,-0.2041,-0.2055,-0.2059,-0.2059,-0.206,-0.2058,-0.2038,-0.2038,-0.2037,-0.2037,0,-0.2337,-0.2332,-0.231,-0.2286,-0.2268,-0.2248,-0.2228,-0.2216,-0.2203,-0.2184,-0.2157,-0.2139,-0.2105,-0.2077,-0.205,-0.2036,-0.2034,-0.2032,-0.2027,-0.2029,-0.2035,-0.2031,-0.2086,-0.2034,-0.2034,-0.2034,-0.2034,-0.2035,-0.2309,-0.2291,-0.2271,-0.2247,-0.2231,-0.2213,-0.2194,-0.2181,-0.2158,-0.213,-0.2125,-0.2095,-0.2073,-0.2036,-0.2022,-0.1998,-0.2002,-0.1994,-0.1991,-0.1989,-0.1989,-0.2039,-0.1993,-0.1993,-0.1993,-0.1993,-0.1993,0,-0.2268,-0.2255,-0.2233,-0.2206,-0.2187,-0.2187,-0.2166,-0.2149,-0.2124,-0.2104,-0.2082,-0.205,-0.2024,-0.2005,-0.1978,-0.1963,-0.1961,-0.1956,-0.1957,-0.1953,-0.1987,-0.1994,-0.1958,-0.1958,-0.1958,-0.1958,-0.1958,-0.1958,-0.2244,-0.2214,-0.2207,-0.2168,-0.2155,-0.2127,-0.2115,-0.2098,-0.2082,-0.2047,-0.2025,-0.2014,-0.1994,-0.1966,-0.1941,-0.1936,-0.1926,-0.1921,-0.1916,-0.1947,-0.1951,-0.1955,-0.1962,-0.1919,-0.1919,-0.1885,-0.1885,-0.1885]},{"header":{"parameterUnit":"m.s-1","parameterCategory":1,"la1":30.2991,"la2":30.254,"lo1":-89.0895,"lo2":-89.0444,"dy":0.0017,"dx":0.0017,"nx":28,"ny":28,"refTime":"2024-04-19T21:00:00:Z","depth":0,"parameterNumber":3,"parameterNumberName":"V-component_of_WINDS"},"data":[0,0,0,0,0,0,0,0,0,0,0,0,0,0,0,0,0,0,0,0,0,0,0,0,0,0,0,0,0,0,0,0,0,0,0,0,0,0,0,0,0,0,0,0,0,0,0,0,0,0,0,0,0,0,0,0,0,0,0.6786,0.6786,0,0.6799,0.6799,0.6799,0.6804,0.6804,0.6803,0.6803,0.6816,0.6816,0.6816,0,0,0,0,0,0,0,0,0,0,0,0,0,0.6763,0.6763,0.6786,0.6786,0.6786,0.6799,0.6799,0.6799,0.6804,0.6804,0.6803,0.6803,0.6816,0.6816,0.6816,0,0,0,0,0,0,0,0,0,0,0,0,0,0.6774,0.6764,0.6786,0.679,0.679,0.6799,0.6799,0.68,0.6804,0.6804,0.6803,0.6803,0.6815,0.6816,0.6817,0.6822,0,0,0.6818,0.6819,0,0,0,0,0,0,0,0,0.6774,0.6775,0.6789,0.679,0.679,0.68,0.6796,0.6807,0.6804,0.6799,0.6803,0.6803,0.681,0.6811,0.6814,0.6822,0.6823,0.6818,0.6819,0.6819,0.6819,0,0,0,0,0,0,0,0.6773,0.6775,0.6791,0.6789,0.679,0.6791,0.6792,0.6798,0.6805,0.6799,0.6799,0.6801,0.6811,0.6813,0.6814,0.6823,0.6818,0.6819,0.6819,0.6819,0.6836,0.6836,0,0,0,0,0,0,0.6772,0.6774,0.6791,0.6792,0.6782,0.6791,0.6793,0.6797,0.6805,0.6806,0.6801,0.6801,0.6812,0.6814,0.6815,0.6821,0.6819,0.6819,0.682,0.6836,0.6836,0.6836,0,0,0,0,0,0,0.6771,0.6773,0.679,0.6783,0.6785,0.6792,0.6796,0.6797,0.68,0.6806,0.6807,0.6803,0.6812,0.6814,0.682,0.6822,0.682,0.682,0.6836,0.6836,0.6836,0.6835,0,0,0,0,0,0,0.677,0.6773,0.6775,0.6783,0.6785,0.6796,0.6796,0.6797,0.6801,0.6801,0.6808,0.6809,0.6812,0.6819,0.6821,0.6823,0.6821,0.6836,0.6836,0.6836,0.6835,0.6835,0.6835,0,0,0,0,0,0.677,0.6774,0.6775,0.6777,0.6789,0.6796,0.6797,0.6801,0.6801,0.6803,0.6807,0.6809,0.6821,0.682,0.6821,0.6824,0.6836,0.6836,0.6836,0.6835,0.6835,0.6835,0,0,0,0,0,0,0.6766,0.6775,0.6777,0.6784,0.6789,0.6797,0.68,0.6802,0.6807,0.6807,0.6811,0.6813,0.6818,0.6822,0.682,0.6829,0.6829,0.6829,0.6827,0.6827,0.6827,0.6827,0.6821,0,0,0,0,0,0.6766,0.6772,0.6779,0.6785,0.6787,0.6793,0.6796,0.6799,0.6804,0.6807,0.6811,0.6816,0.6821,0.6824,0.6829,0.6835,0.6837,0.6838,0.6838,0.6838,0.6838,0.6842,0.6842,0.6837,0.6837,0.6837,0,0,0.6766,0.6772,0.6775,0.6784,0.6789,0.6794,0.6795,0.68,0.6804,0.6807,0.6814,0.6817,0.6823,0.6829,0.6832,0.6832,0.684,0.6838,0.6838,0.6839,0.6842,0.6843,0.6843,0.6837,0.6837,0.6837,0,0,0.6769,0.6774,0.678,0.6784,0.6791,0.6795,0.6796,0.6803,0.6806,0.6812,0.6814,0.6819,0.6827,0.6831,0.6834,0.6839,0.684,0.684,0.6841,0.6845,0.6845,0.6845,0.6847,0.6848,0.6841,0.6841,0.6841,0,0.6769,0.6777,0.6782,0.6787,0.6791,0.6795,0.68,0.6804,0.6812,0.6814,0.6814,0.6825,0.6829,0.6836,0.6837,0.6839,0.6841,0.684,0.6845,0.6845,0.6845,0.6847,0.6848,0.6841,0.6841,0.6841,0.6841,0,0.6776,0.6782,0.6785,0.6793,0.6797,0.6803,0.6808,0.6811,0.6813,0.6817,0.6823,0.6828,0.6834,0.6836,0.6838,0.6844,0.6843,0.6844,0.6843,0.6846,0.6847,0.6848,0.6841,0.6841,0.6841,0.6841,0,0,0.6778,0.6788,0.6789,0.6793,0.6801,0.6805,0.681,0.6817,0.682,0.6825,0.6829,0.6836,0.6837,0.684,0.6843,0.6846,0.6849,0.6846,0.6846,0.6846,0.6855,0.6855,0.6856,0.685,0.685,0.685,0.6855,0,0.6782,0.6792,0.6796,0.6804,0.681,0.6813,0.6817,0.6822,0.6826,0.683,0.6834,0.6839,0.6839,0.6841,0.6844,0.6848,0.6851,0.6848,0.6854,0.6854,0.6853,0.6856,0.6856,0.686,0.6855,0.6855,0.6855,0,0.6789,0.6794,0.6803,0.681,0.6812,0.6816,0.6823,0.6827,0.6832,0.6835,0.6839,0.6841,0.6846,0.6845,0.6852,0.685,0.6853,0.6855,0.6855,0.6856,0.6855,0.6858,0.6862,0.6862,0.6857,0.6856,0.6856,0,0.6789,0.6799,0.6805,0.6808,0.6817,0.6819,0.6823,0.6828,0.6832,0.6837,0.6839,0.6845,0.6848,0.6852,0.6855,0.6854,0.6862,0.6861,0.6864,0.6864,0.6866,0.6865,0.687,0.6867,0.6867,0.6867,0.6867,0,0.6794,0.6799,0.6806,0.681,0.6816,0.682,0.6825,0.6829,0.6834,0.6838,0.6841,0.6845,0.6849,0.6854,0.6857,0.6862,0.6863,0.6865,0.6866,0.6865,0.6865,0.6867,0.6867,0.6867,0.6867,0.6867,0.6867,0,0.6795,0.68,0.6808,0.6815,0.6817,0.6821,0.6827,0.6831,0.6834,0.6839,0.6841,0.6846,0.6852,0.6856,0.6862,0.6864,0.687,0.6871,0.6868,0.6869,0.6871,0.6871,0.6878,0.6879,0.6874,0.6874,0.6875,0,0.6798,0.6802,0.681,0.6814,0.6817,0.6823,0.6826,0.6831,0.6834,0.6841,0.6844,0.6849,0.6854,0.6862,0.6867,0.6872,0.6873,0.6875,0.6873,0.6872,0.6873,0.6873,0.6873,0.6875,0.6875,0.6875,0.6875,0,0.6803,0.6805,0.681,0.6817,0.6821,0.6826,0.6831,0.6834,0.6839,0.6843,0.6848,0.6852,0.6859,0.6865,0.687,0.6873,0.6875,0.6875,0.6876,0.6875,0.6874,0.6875,0.6869,0.6875,0.6875,0.6875,0.6875,0.6875,0.6805,0.6809,0.6815,0.6821,0.6825,0.683,0.6834,0.6838,0.6843,0.685,0.6852,0.6857,0.6862,0.687,0.6873,0.6878,0.6878,0.6879,0.6879,0.688,0.688,0.6873,0.6879,0.6879,0.6879,0.6879,0.6879,0,0.681,0.6814,0.682,0.6827,0.6831,0.6833,0.6838,0.6842,0.6847,0.6852,0.6857,0.6863,0.6868,0.6873,0.6878,0.6881,0.6882,0.6882,0.6882,0.6883,0.6879,0.6878,0.6881,0.6881,0.6881,0.6881,0.6881,0.6881,0.6813,0.682,0.6823,0.6831,0.6835,0.6841,0.6844,0.6848,0.6852,0.686,0.6864,0.6867,0.6872,0.6877,0.6882,0.6883,0.6885,0.6886,0.6887,0.6883,0.6883,0.6883,0.6882,0.6886,0.6886,0.689,0.689,0.689]}]]